TimeMST,TemperatureF,Dew PointF,Humidity,Sea Level PressureIn,VisibilityMPH,Wind Direction,Wind SpeedMPH,Gust SpeedMPH,PrecipitationIn,Events,Conditions,WindDirDegrees,DateUTC
12:03 AM,26.6,24.8,93,30.15,1.0,NNE,6.9,-,0.01,Snow,Light Snow,20,2012-11-26 07:03:00
12:53 AM,25.0,25.0,100,30.25,1.2,NNE,5.8,-,0.04,Snow,Light Snow,20,2012-11-26 07:53:00
1:22 AM,24.8,24.8,100,30.17,2.0,North,6.9,-,0.01,Snow,Light Snow,10,2012-11-26 08:22:00
1:43 AM,24.8,24.8,100,30.18,1.8,North,6.9,-,0.01,Snow,Light Snow,10,2012-11-26 08:43:00
1:53 AM,25.0,24.1,96,30.28,2.0,North,6.9,-,0.02,Snow,Light Snow,10,2012-11-26 08:53:00
2:00 AM,24.8,24.8,100,30.19,1.5,North,-9999.0,-,0.00,Snow,Light Snow,0,2012-11-26 09:00:00
2:29 AM,24.8,24.8,100,30.20,2.0,North,5.8,-,0.01,Snow,Light Snow,350,2012-11-26 09:29:00
2:53 AM,25.0,24.1,96,30.31,2.5,NNW,4.6,-,0.01,Snow,Light Snow,340,2012-11-26 09:53:00
3:08 AM,24.8,24.8,100,30.22,3.0,North,4.6,-,0.00,Snow,Light Snow,350,2012-11-26 10:08:00
3:20 AM,24.8,23.0,93,30.22,2.5,NNW,8.1,-,0.01,Snow,Light Snow,330,2012-11-26 10:20:00
3:31 AM,24.8,23.0,93,30.23,4.0,NNW,6.9,-,0.01,Snow,Light Snow,340,2012-11-26 10:31:00
3:53 AM,24.1,23.0,96,30.34,3.0,NNW,6.9,-,0.01,Snow,Light Snow,340,2012-11-26 10:53:00
4:14 AM,21.2,21.2,100,30.23,6.0,NW,4.6,-,0.00,Snow,Light Snow,320,2012-11-26 11:14:00
4:41 AM,10.4,10.4,100,30.24,10.0,Calm,Calm,-,0.00,,Mostly Cloudy,0,2012-11-26 11:41:00
4:49 AM,15.8,12.2,86,30.24,10.0,Calm,Calm,-,0.00,,Mostly Cloudy,0,2012-11-26 11:49:00
4:53 AM,18.0,16.0,92,30.38,10.0,Calm,Calm,-,0.00,,Mostly Cloudy,0,2012-11-26 11:53:00
5:53 AM,23.0,21.9,96,30.39,10.0,Calm,Calm,-,N/A,,Overcast,0,2012-11-26 12:53:00
6:51 AM,21.2,21.2,100,30.28,10.0,South,3.5,-,N/A,,Overcast,180,2012-11-26 13:51:00
6:53 AM,21.9,21.9,100,30.40,10.0,South,4.6,-,N/A,,Overcast,180,2012-11-26 13:53:00
7:05 AM,21.2,21.2,100,30.28,8.0,South,5.8,-,N/A,,Overcast,190,2012-11-26 14:05:00
7:15 AM,21.2,21.2,100,30.28,1.8,SSE,3.5,-,N/A,,Overcast,160,2012-11-26 14:15:00
7:40 AM,21.2,21.2,100,30.28,0.8,South,6.9,-,N/A,,Overcast,190,2012-11-26 14:40:00
7:53 AM,21.0,21.0,100,30.42,0.5,SSW,4.6,-,N/A,Fog,Light Freezing Fog,210,2012-11-26 14:53:00
8:51 AM,19.4,19.4,100,30.29,1.0,South,5.8,-,N/A,,Overcast,180,2012-11-26 15:51:00
8:53 AM,19.9,19.9,100,30.43,1.5,South,4.6,-,N/A,,Overcast,180,2012-11-26 15:53:00
8:58 AM,19.4,19.4,100,30.29,3.0,SE,3.5,-,N/A,,Overcast,130,2012-11-26 15:58:00
9:26 AM,19.4,17.6,93,30.29,10.0,SW,13.8,-,N/A,,Mostly Cloudy,220,2012-11-26 16:26:00
9:43 AM,21.2,19.4,93,30.28,10.0,SW,13.8,-,N/A,,Scattered Clouds,220,2012-11-26 16:43:00
9:53 AM,21.9,21.0,96,30.41,10.0,SW,13.8,-,N/A,,Partly Cloudy,230,2012-11-26 16:53:00
10:53 AM,23.0,21.0,92,30.40,10.0,SW,13.8,-,N/A,,Partly Cloudy,220,2012-11-26 17:53:00
11:53 AM,24.1,21.9,91,30.37,10.0,SSW,11.5,-,N/A,,Clear,200,2012-11-26 18:53:00
12:53 PM,24.1,21.9,91,30.35,10.0,South,11.5,-,N/A,,Clear,190,2012-11-26 19:53:00
1:53 PM,24.1,21.9,91,30.32,10.0,South,10.4,-,N/A,,Clear,180,2012-11-26 20:53:00
2:53 PM,25.0,21.9,88,30.28,10.0,SSE,11.5,-,N/A,,Clear,160,2012-11-26 21:53:00
3:53 PM,24.1,21.0,88,30.28,10.0,SSE,9.2,-,N/A,,Clear,160,2012-11-26 22:53:00
4:53 PM,21.0,18.0,88,30.30,10.0,South,10.4,-,N/A,,Clear,170,2012-11-26 23:53:00
5:53 PM,19.9,18.0,92,30.27,10.0,South,10.4,-,N/A,,Clear,170,2012-11-27 00:53:00
6:53 PM,19.9,18.0,92,30.28,10.0,SSE,5.8,-,N/A,,Clear,160,2012-11-27 01:53:00
7:53 PM,21.0,18.0,88,30.27,10.0,South,4.6,-,N/A,,Clear,180,2012-11-27 02:53:00
8:53 PM,19.0,17.1,92,30.27,10.0,Variable,3.5,-,N/A,,Clear,0,2012-11-27 03:53:00
9:53 PM,24.1,19.0,81,30.24,10.0,Variable,3.5,-,N/A,,Clear,0,2012-11-27 04:53:00
10:53 PM,25.0,19.0,78,30.22,10.0,SSW,5.8,-,N/A,,Clear,210,2012-11-27 05:53:00
11:53 PM,19.9,15.1,81,30.22,10.0,Calm,Calm,-,N/A,,Clear,0,2012-11-27 06:53:00